Kansas Department of Transportation
RWIS(Road and Runway Information System) Map and Weather Data





Station
Surface
Air
Wind
Site IDSensor TypeLocationTemperature (°F)Temperature (°F)Humidity (%)Speed (mi/h)Gusts (mi/h)DirectionTime
123002AtmosphericBonner Springs 684926SEApr 2 2020 7:55PM
123002ApproachBonner Springs68     Apr 2 2020 7:55PM
123002DeckBonner Springs68     Apr 2 2020 7:55PM
123014AtmosphericBull Creek 665447SApr 2 2020 7:55PM
123014NullBull Creek72     Apr 2 2020 7:25PM
123014DeckBull Creek70     Apr 2 2020 7:55PM
123014DepartureBull Creek70     Apr 2 2020 7:55PM
123015AtmosphericLeavenworth 665324SApr 2 2020 7:55PM
123015DeckLeavenworth66     Apr 2 2020 7:55PM
123015DepartureLeavenworth68     Apr 2 2020 7:55PM
123020AtmosphericMayetta 6182914NNWApr 2 2020 7:55PM
123020RoadwayMayettaUnavailable     Apr 2 2020 7:55PM
123020DeckMayettaUnavailable     Apr 2 2020 7:55PM
505000AtmosphericKTA 1 6170912NNWApr 2 2020 7:50PM
505000ApproachKTA 163     Apr 2 2020 8:00PM
505000DeckKTA 163     Apr 2 2020 8:00PM
505001AtmosphericKTA 2 5277712NApr 2 2020 7:50PM
505001ApproachKTA 261     Apr 2 2020 7:50PM
505001DeckKTA 261     Apr 2 2020 7:50PM
505002AtmosphericKTA 3 4592712NEApr 2 2020 7:50PM
505002ApproachKTA 359     Apr 2 2020 7:50PM
505002DeckKTA 359     Apr 2 2020 7:50PM
505003AtmosphericKTA 4 5770719NApr 2 2020 7:50PM
505003ApproachKTA 4Unavailable     Apr 2 2020 7:50PM
505003DeckKTA 457     Apr 2 2020 7:50PM
505004AtmosphericKTA 5 5799813WSWApr 2 2020 7:50PM
505004RoadwayKTA 559     Apr 2 2020 7:50PM
505004RoadwayKTA 559     Apr 2 2020 7:50PM
505005AtmosphericKTA 6 6183712NWApr 2 2020 7:50PM
505005Approach KTA 659     Apr 2 2020 7:50PM
505005DeckKTA 659     Apr 2 2020 7:50PM
505006AtmosphericKTA 7 6392912NWApr 2 2020 7:50PM
505006ApproachKTA 763     Apr 2 2020 7:50PM
505006DeckKTA 764     Apr 2 2020 7:50PM
505007AtmosphericKTA 8 665647SSEApr 2 2020 7:50PM
505007ApproachKTA 868     Apr 2 2020 7:50PM
505007DeckKTA 868     Apr 2 2020 7:50PM
505008AtmosphericKTA 9 685024SWApr 2 2020 7:50PM
505008ApproachKTA 970     Apr 2 2020 7:50PM
505008DeckKTA 970     Apr 2 2020 7:50PM
505009AtmosphericKTA 10 725912SSEApr 2 2020 7:50PM
505009ApproachKTA 1066     Apr 2 2020 7:50PM
505009DeckKTA 1068     Apr 2 2020 7:50PM
505010AtmosphericWebb 5778813WApr 2 2020 7:55PM
505010DeckWebb55     Apr 2 2020 7:55PM
505010NullWebb57     Apr 2 2020 7:55PM
505014AtmosphericI-135 57741217NApr 2 2020 7:50PM
505014ApproachI-13557     Apr 2 2020 7:55PM
505014DeckI-13555     Apr 2 2020 7:55PM
540000AtmosphericBlue Rapids 489429WNWApr 2 2020 7:55PM
540000DeckBlue Rapids43     Apr 2 2020 7:55PM
540000DepartureBlue RapidsUnavailable     Apr 2 2020 7:55PM
540001AtmosphericSabetha 4579612NWApr 2 2020 7:55PM
540001ApproachSabethaUnavailable     Apr 2 2020 7:55PM
540001DeckSabethaUnavailable     Apr 2 2020 7:55PM
540002AtmosphericWestgate 6373914WNWApr 2 2020 7:55PM
540002DeckWestgate61     Apr 2 2020 7:55PM
540002DepartureWestgateUnavailable     Apr 2 2020 7:55PM
540003AtmosphericEmporia 68663 SSWApr 2 2020 6:40PM
540003ApproachEmporia70     Apr 2 2020 6:40PM
540003DeckEmporia72     Apr 2 2020 6:40PM
540005AtmosphericLawrence 685138EApr 2 2020 7:55PM
540005ApproachLawrence68     Apr 2 2020 7:55PM
540005DeckLawrence68     Apr 2 2020 7:55PM
540006AtmosphericTroy 66689 SSEApr 2 2020 6:25PM
540006DeckTroy70     Apr 2 2020 6:25PM
540006DepartureTroyUnavailable     Apr 2 2020 6:25PM
540007AtmosphericManhattan 5781713NWApr 2 2020 7:55PM
540007DepartureManhattan50     Apr 2 2020 7:55PM
540007DeckManhattan54     Apr 2 2020 7:55PM
541000AtmosphericElkhart 34641116NApr 2 2020 7:55PM
541000ApproachElkhart57     Apr 2 2020 7:55PM
541000DeckElkhart52     Apr 2 2020 7:55PM
541000DeckElkhart52     Apr 2 2020 7:55PM
541001AtmosphericSyracuse 30711118NNEApr 2 2020 7:55PM
541001Out of Service for WinterSyracuse43     Apr 2 2020 7:55PM
541001DeckSyracuseUnavailable     Apr 2 2020 7:55PM
541003AtmosphericFord 4386913NApr 2 2020 7:55PM
541003DeckFordUnavailable     Apr 2 2020 7:55PM
541003DepartureFord43     Apr 2 2020 7:55PM
541004AtmosphericScott 28931724EApr 2 2020 7:55PM
541004DepartureScott37     Apr 2 2020 7:55PM
541005AtmosphericNess 30731321NApr 2 2020 7:55PM
541005DeckNess36     Apr 2 2020 7:55PM
541005DepartureNess39     Apr 2 2020 7:55PM
543000AtmosphericJunction City 547049NNEApr 2 2020 7:55PM
543000ApproachJunction City52     Apr 2 2020 7:55PM
543000DeckJunction City50     Apr 2 2020 7:55PM
543001AtmosphericEllsworth 45931421NApr 2 2020 7:55PM
543001RoadwayEllsworth39     Apr 2 2020 7:55PM
543003AtmosphericSalina 52681116NApr 2 2020 7:55PM
543003DepartureSalina46     Apr 2 2020 7:55PM
543003RoadwaySalina41     Apr 2 2020 7:55PM
543004AtmosphericConcordia 52821722NNWApr 2 2020 7:55PM
543004ApproachConcordia39     Apr 2 2020 7:55PM
543004DeckConcordiaUnavailable     Apr 2 2020 7:55PM
543005AtmosphericPeabody 548900NNEApr 2 2020 7:55PM
543005ApproachPeabody52     Apr 2 2020 7:55PM
543005DeckPeabodyUnavailable     Apr 2 2020 7:55PM
560000AtmosphericEdson 37911622NApr 2 2020 7:55PM
560000RoadwayEdson32     Apr 2 2020 7:55PM
560000RoadwayEdson32     Apr 2 2020 7:55PM
560001AtmosphericOakley 37781419NNWApr 2 2020 7:55PM
560001ApproachOakley34     Apr 2 2020 7:55PM
560001DeckOakley34     Apr 2 2020 7:55PM
560002AtmosphericAtwood 34711017NNWApr 2 2020 7:55PM
560002ApproachAtwood34     Apr 2 2020 7:55PM
560002DeckAtwoodUnavailable     Apr 2 2020 7:55PM
560003AtmosphericJennings 36791117NApr 2 2020 7:55PM
560003ApproachJennings34     Apr 2 2020 7:55PM
560003DeckJennings32     Apr 2 2020 7:55PM
560003DeckJennings32     Apr 2 2020 7:55PM
560004AtmosphericWakeeney 36791118NApr 2 2020 7:55PM
560004ApproachWakeeney36     Apr 2 2020 7:55PM
560004DeckWakeeney34     Apr 2 2020 7:55PM
560005AtmosphericWalker 37751115NNWApr 2 2020 7:55PM
560005ApproachWalker37     Apr 2 2020 7:55PM
560005DeckWalker36     Apr 2 2020 7:55PM
560006AtmosphericBow Creek(Stockton) 3781916NApr 2 2020 7:55PM
560006ApproachBow Creek(Stockton)36     Apr 2 2020 7:55PM
560006DeckBow Creek(Stockton)36     Apr 2 2020 7:55PM
560007AtmosphericLebanon 21781417NNWApr 2 2020 7:55PM
560007ApproachLebanon36     Apr 2 2020 7:55PM
560007DeckLebanon32     Apr 2 2020 7:55PM
572000AtmosphericGreat Bend 50821117NNEApr 2 2020 7:55PM
572000ApproachGreat Bend39     Apr 2 2020 7:55PM
572000DeckGreat Bend34     Apr 2 2020 7:55PM
572001AtmosphericPratt 508328NEApr 2 2020 7:55PM
572001ApproachPratt50     Apr 2 2020 7:55PM
572001DeckPratt50     Apr 2 2020 7:55PM
572002AtmosphericAnthony 5979813NApr 2 2020 7:55PM
572002ApproachAnthony57     Apr 2 2020 7:55PM
572002DeckAnthony54     Apr 2 2020 7:55PM
573000AtmosphericEureka 6372916NWApr 2 2020 7:55PM
573000DeckEureka64     Apr 2 2020 7:55PM
573000DepartureEureka64     Apr 2 2020 7:55PM
573001AtmosphericGarnett 665456SApr 2 2020 7:55PM
573001ApproachGarnett70     Apr 2 2020 7:55PM
573001DeckGarnett70     Apr 2 2020 7:55PM
573003AtmosphericChetopa 685227SEApr 2 2020 7:55PM
573003DeckChetopa73     Apr 2 2020 7:55PM
573003DeckChetopa73     Apr 2 2020 7:55PM
573003DepartureChetopa75     Apr 2 2020 7:55PM
573004AtmosphericChanute 685824SApr 2 2020 7:55PM
573004ApproachChanute72     Apr 2 2020 7:55PM
573004DeckChanute72     Apr 2 2020 7:55PM